Wind_Speed
29 30 30 31 32 33 33 34 35 35 37 38 37 37 37 38 39 39 39 39 39 40 40 40 40 40 41 42 42 42 41 41 41 41 40 40 40 40 40 41 41 42 42 42
29 30 30 31 31 32 33 34 34 35 35 36 37 36 35 35 36 36 36 36 37 38 39 40 40 39 39 39 40 41 40 40 40 40 40 40 41 41 41 41 41 41 42 43
28 29 29 30 31 32 33 34 33 34 34 35 36 35 33 33 33 34 34 35 35 35 36 37 38 38 38 39 39 40 40 40 40 41 41 41 41 41 41 41 41 41 42 42
28 29 30 31 32 33 33 34 34 35 35 35 36 36 32 32 33 34 34 34 34 35 36 36 37 38 38 39 39 39 40 40 40 41 41 41 41 41 41 41 41 42 42 43
28 29 30 31 32 32 33 33 33 34 34 35 34 35 32 32 33 33 33 34 35 36 36 36 37 38 38 38 38 39 39 39 40 40 40 41 41 42 42 42 42 42 43 43
29 29 30 31 31 32 32 32 33 33 33 34 32 34 33 31 32 32 33 33 34 35 36 37 37 38 38 38 38 38 38 39 39 40 40 41 41 41 41 41 41 42 42 43
29 29 30 30 30 30 30 31 32 33 33 33 32 33 32 31 32 33 33 33 34 34 34 35 36 37 37 36 37 38 38 38 39 39 41 41 42 41 41 41 41 41 41 42
29 29 29 29 29 30 29 29 31 32 33 32 32 33 31 31 32 33 33 33 33 33 33 34 34 35 35 36 36 36 37 38 38 39 40 41 41 41 41 41 41 42 42 42
29 28 28 28 28 28 28 29 30 32 33 33 33 33 32 31 32 32 33 33 33 32 32 32 33 34 35 35 36 37 37 37 37 38 39 40 40 40 40 41 41 42 42 42
27 27 26 27 28 28 29 29 30 31 32 34 33 32 31 31 31 31 32 33 32 32 32 32 33 33 34 34 35 36 36 36 36 37 37 38 38 39 39 40 40 41 42 42
27 27 26 26 27 28 28 29 30 31 32 33 34 33 31 30 30 31 32 33 33 32 32 32 32 32 33 34 34 34 35 35 35 36 36 37 37 38 39 39 40 41 42 42
27 27 27 27 27 27 27 28 29 30 31 32 34 33 31 31 30 31 31 31 31 32 32 33 33 33 33 33 34 34 34 35 35 35 36 36 37 38 39 39 40 41 41 42
27 27 27 27 26 27 27 27 28 29 31 31 32 32 30 30 29 30 30 30 30 30 30 31 32 33 33 34 34 34 35 35 36 36 36 36 37 38 39 39 39 40 41 41
27 27 27 26 26 27 27 27 27 28 30 30 30 31 30 29 29 29 29 30 30 30 30 30 31 32 32 32 33 33 34 34 35 35 36 36 37 37 38 38 38 39 39 39
27 28 28 27 26 26 27 27 27 28 29 30 30 30 29 28 28 28 28 29 29 30 30 31 31 31 31 32 32 32 33 32 33 34 35 36 36 36 36 37 37 37 37 37
28 29 28 28 27 27 27 26 26 27 28 29 30 29 27 27 26 26 26 27 27 28 29 29 29 29 30 30 31 32 32 32 32 33 34 33 33 34 34 34 34 34 35 35
28 29 30 29 29 29 28 25 26 27 28 29 29 28 27 26 25 24 25 25 25 26 26 27 28 29 29 30 31 31 31 32 32 33 33 33 33 34 34 33 33 33 33 34
28 29 30 30 30 30 28 27 27 28 28 27 28 27 27 26 24 23 24 24 25 25 26 26 27 28 28 29 30 30 31 31 31 32 32 33 33 33 33 33 33 32 32 33
28 29 29 29 30 31 29 28 28 28 27 26 27 26 25 25 24 23 25 25 25 26 26 26 26 27 27 28 28 29 30 30 30 31 31 31 32 32 31 31 31 31 31 31
28 28 28 29 30 30 28 27 27 28 26 25 26 26 25 24 25 24 25 26 26 26 26 26 25 26 26 26 27 27 28 28 29 29 29 29 29 29 29 29 29 29 29 29
27 27 27 28 29 29 27 27 26 26 25 24 24 25 26 25 25 25 25 25 25 26 26 26 26 26 26 25 26 25 26 27 27 27 27 27 27 27 28 28 28 28 28 28
26 27 27 27 28 27 26 26 25 25 25 24 24 25 25 25 25 25 25 25 24 24 24 24 24 24 25 25 24 24 24 24 25 25 26 26 26 26 26 27 27 26 26 26
25 26 26 26 26 25 25 24 24 24 24 24 24 24 24 24 24 24 24 24 24 24 24 23 24 24 25 24 23 22 22 23 23 24 24 25 25 25 25 25 25 25 25 25
24 25 25 25 24 24 23 23 23 23 23 23 23 22 22 23 23 23 23 23 24 23 22 23 23 24 24 23 23 22 22 22 23 23 23 23 24 24 23 23 23 23 23 24
23 24 24 24 23 23 23 22 22 22 22 22 22 22 21 22 22 22 22 23 22 22 22 23 24 24 23 23 23 22 22 22 22 22 22 22 21 22 22 22 22 22 22 22
22 23 24 24 23 23 22 22 21 22 22 22 22 21 22 21 21 22 22 22 22 22 22 23 22 22 22 21 21 21 21 21 21 21 21 21 20 20 21 21 21 21 22 22
Wind_Direction
273 271 272 273 273 273 273 273 272 272 272 271 271 270 269 268 268 266 265 263 262 261 261 262 261 261 262 261 262 261 261 260 258 257 256 256 256 256 256 255 255 256 257 257
277 275 274 273 274 274 274 275 274 273 273 273 271 270 270 269 268 266 265 264 264 263 263 261 261 262 262 262 261 260 259 259 258 257 257 257 256 255 256 257 258 258 257 258
280 278 277 276 276 276 276 277 276 275 274 273 273 271 270 270 268 266 265 264 264 264 263 262 261 261 260 260 259 258 258 259 259 259 259 258 258 257 257 258 259 258 258 259
282 281 279 279 279 279 278 277 277 276 275 274 273 274 271 270 269 268 268 266 265 264 263 262 262 261 260 259 258 257 258 259 260 260 260 259 259 259 259 259 259 259 258 258
284 283 281 281 281 281 280 279 278 277 276 275 274 274 273 271 269 269 269 269 267 265 264 264 263 261 261 261 259 258 259 260 260 260 260 260 260 260 261 260 260 260 259 259
286 285 284 283 282 281 280 280 279 278 277 276 276 276 275 273 272 271 270 271 270 268 265 264 263 262 261 261 260 260 260 260 260 260 261 261 261 261 261 261 261 260 260 259
287 287 286 284 282 281 280 281 280 280 279 279 279 277 277 276 274 272 272 271 271 270 269 267 264 262 262 262 262 262 260 260 260 260 260 261 261 261 261 260 260 260 260 259
289 288 287 285 283 282 281 281 280 281 281 281 281 280 279 278 276 275 273 273 272 271 270 268 265 263 262 262 261 261 261 261 261 260 260 261 261 260 260 260 260 260 260 260
292 291 289 286 284 282 282 281 281 280 279 281 282 281 281 279 278 277 275 274 273 272 270 268 266 265 264 262 261 262 261 261 262 262 262 261 261 261 261 261 261 260 260 261
292 292 289 288 286 283 282 281 281 280 281 283 284 283 283 281 280 278 277 276 273 272 270 267 266 266 265 264 264 263 262 262 262 262 263 263 262 262 262 262 262 261 262 262
292 291 290 288 287 287 284 281 280 281 281 284 286 287 286 285 284 281 277 275 273 270 268 266 266 267 266 265 264 263 263 263 264 264 264 264 264 264 264 264 263 263 263 263
290 290 290 289 288 286 285 283 281 282 283 284 286 288 289 287 286 284 280 277 273 270 267 267 267 268 268 267 266 265 265 266 267 267 267 266 266 266 265 265 266 265 265 265
291 291 291 291 290 288 287 285 283 282 282 284 287 289 289 289 289 287 282 279 275 272 271 270 269 270 269 268 267 267 268 269 269 269 269 269 269 268 268 268 268 267 266 266
291 290 292 293 293 291 288 287 285 284 284 286 287 289 289 289 288 286 284 280 276 273 272 272 272 271 270 269 269 270 271 271 271 270 270 270 271 271 269 269 269 267 267 267
292 292 291 291 292 292 291 288 287 285 285 286 289 290 291 289 287 286 284 282 278 276 274 273 273 271 270 270 269 270 271 270 270 270 270 271 271 271 269 269 268 267 267 267
293 293 292 289 290 291 291 291 289 287 286 287 289 290 290 286 286 286 284 283 280 278 276 274 272 270 270 270 270 270 270 270 271 272 272 271 271 270 269 268 268 267 267 267
292 292 292 289 289 289 291 292 290 289 288 290 289 289 287 285 286 285 283 282 283 281 279 276 273 271 271 272 271 270 269 271 272 272 271 271 272 271 269 269 269 268 267 267
294 293 294 291 290 289 291 290 290 290 290 291 289 287 285 283 284 284 284 284 284 283 281 278 276 274 273 273 272 271 270 271 271 272 272 272 272 271 270 269 269 269 268 268
294 293 293 292 291 290 290 290 290 291 291 290 288 286 283 283 285 284 283 284 284 282 280 279 277 276 274 274 274 273 272 272 272 273 273 272 271 270 269 269 268 268 268 269
293 293 292 293 292 292 294 291 289 290 290 290 288 285 284 285 285 286 283 284 284 282 280 280 278 277 277 276 276 275 273 271 272 272 272 272 271 269 269 269 269 269 269 269
293 292 292 293 292 292 295 294 292 290 290 289 288 287 286 286 287 287 285 285 284 282 280 280 279 278 278 278 278 276 274 272 272 273 272 272 272 271 270 270 269 269 270 270
291 292 292 292 293 295 295 294 293 291 289 288 288 288 288 288 289 289 287 286 287 285 283 281 279 279 280 280 278 276 275 274 274 274 274 273 272 272 271 270 269 269 270 271
290 292 292 292 293 294 293 293 293 292 290 289 290 290 289 290 292 292 290 288 289 287 284 281 280 280 281 280 278 276 275 275 275 276 275 274 272 271 270 269 268 269 270 272
291 291 292 294 295 293 293 294 295 295 293 291 292 290 289 290 292 293 291 290 290 289 284 282 283 283 281 279 277 275 275 276 277 277 276 274 273 271 270 269 268 269 271 274
291 290 292 294 294 292 291 293 294 296 295 294 292 291 291 291 290 292 293 294 291 288 286 283 283 283 282 280 277 276 276 277 277 277 276 274 273 271 270 270 269 271 273 275
292 293 294 295 293 293 293 294 294 295 295 293 290 289 291 291 290 292 293 294 292 291 288 286 283 282 282 281 279 278 278 277 277 277 276 275 275 274 273 272 271 271 273 274
Height
5691 5692 5691 5691 5690 5690 5689 5689 5689 5688 5687 5686 5686 5687 5688 5687 5686 5687 5687 5687 5688 5689 5690 5691 5692 5693 5694 5695 5696 5697 5698 5699 5700 5701 5703 5704 5706 5707 5709 5710 5711 5714 5716 5717
5684 5683 5683 5682 5682 5681 5680 5679 5679 5679 5677 5676 5676 5677 5678 5678 5678 5677 5677 5677 5678 5679 5680 5681 5682 5683 5684 5684 5686 5687 5688 5689 5690 5692 5693 5694 5696 5698 5699 5701 5702 5704 5705 5707
5676 5677 5675 5674 5674 5672 5672 5671 5670 5669 5669 5667 5666 5668 5670 5670 5669 5668 5668 5668 5669 5669 5670 5671 5672 5673 5673 5674 5675 5677 5678 5679 5680 5682 5683 5684 5686 5688 5689 5690 5692 5693 5695 5697
5669 5669 5667 5666 5665 5664 5663 5662 5661 5660 5659 5658 5658 5656 5661 5661 5660 5660 5660 5660 5660 5660 5661 5661 5662 5663 5664 5665 5666 5667 5668 5670 5671 5672 5673 5675 5676 5678 5679 5681 5682 5683 5684 5686
5662 5661 5660 5658 5657 5655 5654 5653 5652 5651 5649 5649 5649 5647 5651 5652 5652 5652 5652 5651 5651 5651 5652 5652 5652 5653 5654 5655 5656 5657 5659 5660 5661 5662 5663 5664 5666 5667 5669 5670 5671 5673 5674 5675
5655 5654 5652 5651 5649 5647 5645 5645 5643 5642 5640 5640 5642 5639 5640 5642 5643 5643 5643 5643 5642 5642 5642 5643 5643 5644 5645 5646 5647 5648 5649 5650 5651 5652 5653 5654 5655 5657 5658 5659 5660 5661 5663 5664
5649 5647 5645 5643 5642 5640 5638 5637 5635 5633 5632 5632 5633 5631 5633 5634 5633 5633 5633 5633 5633 5633 5633 5633 5634 5634 5635 5636 5637 5638 5639 5640 5641 5642 5643 5644 5645 5646 5647 5648 5650 5651 5652 5654
5641 5641 5638 5636 5635 5633 5631 5630 5629 5626 5624 5624 5624 5623 5626 5625 5623 5623 5623 5623 5624 5624 5624 5624 5625 5625 5626 5627 5628 5629 5629 5630 5631 5632 5633 5634 5635 5636 5637 5638 5639 5640 5642 5643
5634 5634 5632 5629 5627 5626 5624 5622 5622 5619 5616 5615 5615 5616 5617 5616 5615 5615 5614 5614 5614 5615 5615 5615 5616 5616 5616 5617 5618 5619 5620 5620 5621 5622 5622 5623 5624 5625 5626 5627 5628 5629 5630 5632
5627 5626 5625 5623 5621 5619 5617 5615 5614 5611 5609 5607 5607 5608 5609 5609 5607 5607 5606 5605 5605 5606 5606 5606 5607 5607 5607 5608 5608 5609 5610 5610 5611 5612 5612 5613 5614 5615 5615 5616 5618 5618 5619 5620
5621 5619 5619 5617 5615 5613 5611 5609 5606 5604 5603 5600 5598 5603 5602 5600 5599 5598 5597 5596 5596 5596 5597 5597 5597 5597 5598 5598 5598 5599 5600 5601 5601 5602 5602 5603 5603 5604 5605 5606 5607 5607 5608 5609
5615 5613 5611 5611 5609 5606 5603 5602 5600 5599 5596 5594 5591 5595 5594 5592 5590 5588 5588 5587 5587 5588 5588 5588 5588 5588 5588 5589 5589 5590 5591 5591 5592 5592 5592 5593 5593 5594 5594 5595 5595 5596 5597 5597
5609 5607 5605 5603 5604 5600 5597 5595 5593 5592 5589 5587 5585 5588 5586 5584 5582 5580 5579 5578 5578 5579 5579 5579 5579 5579 5579 5580 5580 5581 5581 5582 5582 5582 5582 5583 5583 5584 5584 5584 5584 5585 5585 5586
5602 5601 5600 5598 5595 5593 5591 5589 5587 5585 5582 5580 5580 5579 5579 5577 5574 5573 5571 5570 5570 5570 5570 5570 5570 5570 5570 5570 5571 5571 5572 5572 5572 5572 5572 5573 5573 5573 5573 5573 5573 5574 5574 5575
5596 5595 5593 5591 5589 5587 5584 5583 5581 5578 5577 5574 5573 5572 5571 5569 5566 5565 5563 5562 5561 5561 5561 5561 5561 5561 5561 5561 5562 5562 5562 5562 5563 5563 5563 5563 5563 5563 5563 5563 5563 5563 5563 5564
5590 5588 5587 5585 5583 5580 5578 5577 5574 5572 5570 5568 5566 5565 5564 5561 5559 5557 5556 5555 5554 5553 5553 5552 5552 5552 5552 5552 5553 5553 5553 5553 5553 5553 5553 5553 5553 5553 5553 5553 5553 5553 5553 5554
5584 5582 5580 5578 5576 5573 5571 5571 5568 5566 5564 5562 5559 5559 5556 5554 5552 5551 5549 5548 5547 5546 5545 5544 5544 5543 5544 5544 5544 5544 5544 5544 5544 5544 5544 5544 5543 5543 5543 5543 5543 5543 5544 5544
5578 5575 5572 5570 5569 5566 5568 5564 5562 5559 5558 5555 5552 5550 5549 5547 5546 5545 5543 5541 5540 5539 5538 5537 5536 5535 5535 5535 5535 5535 5535 5535 5535 5535 5534 5534 5534 5533 5533 5533 5534 5534 5534 5534
5571 5569 5566 5563 5560 5558 5560 5557 5554 5552 5551 5549 5546 5544 5542 5541 5540 5539 5537 5535 5533 5532 5531 5529 5528 5528 5527 5527 5527 5527 5527 5526 5526 5526 5525 5525 5524 5524 5524 5524 5524 5525 5525 5525
5565 5562 5560 5556 5553 5551 5553 5551 5547 5546 5544 5543 5540 5538 5536 5534 5534 5533 5530 5528 5527 5525 5524 5522 5521 5521 5520 5520 5519 5518 5518 5518 5518 5517 5516 5516 5515 5515 5516 5516 5516 5516 5516 5516
5558 5556 5553 5550 5546 5545 5545 5543 5541 5540 5539 5536 5533 5532 5530 5528 5527 5526 5523 5522 5520 5518 5517 5515 5514 5513 5513 5512 5511 5511 5510 5510 5510 5509 5508 5508 5508 5507 5507 5507 5507 5508 5508 5508
5551 5549 5547 5544 5541 5542 5539 5536 5535 5533 5530 5528 5527 5525 5524 5522 5520 5518 5517 5515 5513 5511 5510 5509 5508 5507 5506 5505 5504 5504 5503 5503 5502 5502 5501 5501 5500 5500 5500 5500 5500 5500 5500 5500
5545 5543 5541 5539 5538 5535 5532 5530 5528 5526 5524 5522 5520 5519 5517 5516 5514 5513 5511 5509 5507 5505 5504 5502 5502 5501 5500 5499 5498 5497 5497 5496 5496 5495 5494 5494 5493 5493 5492 5492 5493 5493 5492 5492
5539 5537 5534 5532 5531 5529 5526 5524 5522 5520 5518 5516 5515 5513 5512 5510 5509 5507 5505 5503 5501 5499 5498 5497 5495 5494 5493 5492 5492 5491 5490 5490 5489 5488 5488 5487 5486 5486 5486 5486 5486 5485 5485 5485
5533 5530 5528 5526 5525 5523 5521 5519 5517 5515 5513 5510 5509 5507 5506 5504 5503 5501 5500 5498 5496 5494 5492 5491 5489 5488 5487 5486 5485 5485 5484 5483 5483 5482 5481 5481 5480 5479 5479 5479 5479 5479 5479 5478
5527 5525 5523 5521 5519 5517 5515 5513 5511 5509 5507 5505 5504 5502 5501 5499 5498 5496 5494 5492 5490 5488 5487 5485 5483 5482 5481 5480 5479 5478 5478 5477 5477 5476 5475 5475 5474 5473 5473 5473 5473 5472 5472 5472